User: anonymous   Login
Location: Wawayanda State Park
(41.1833°N, 74.4333°W)
Time: 19:15:27
(UTC-04:00)
Language:

Landsat 7 - Orbit

View from above orbital plane
View from above orbital plane
View from above satellite
View from above satellite

Ground track
Ground track

The orbit data is extracted from the following two-line orbital elements,

1 25682U 99020A   15144.30817948  .00000022  00000-0  14921-4 0  9993
2 25682 098.2176 214.5396 0001091 095.1768 264.9555 14.57111541856662
Epoch (UTC): 24 May 2015 07:23:46
Eccentricity: 0.0001091
inclination: 98.2176°
perigee height: 702 km
apogee height: 703 km
right ascension of ascending node: 214.5396°
argument of perigee: 95.1768°
revolutions per day: 14.57111541
mean anomaly at epoch: 264.9555°
orbit number at epoch: 85666

The dashed part of the orbit path shows where the satellite is in the earth's shadow,  

DLR